Location: Poprad
(49.0500°N, 20.3000°E)
Time: 06:31:11
(UTC+02:00)

CUTE 1.7 + AOD 2 - Visible Passes

Search period start: 16 April 2024 00:00
Search period end: 26 April 2024 00:00
Orbit: 572 x 588 km, 97.7° (Epoch: 15 April)

Date Brightness Start Highest point End Pass type
(mag) Time Alt. Az. Time Alt. Az. Time Alt. Az.
16 Apr ? 03:10:20 10° NE 03:12:55 16° E 03:15:27 10° SE visible
16 Apr ? 04:44:34 10° N 04:48:35 55° WNW 04:52:33 10° SSW visible
17 Apr ? 03:15:04 10° NE 03:17:54 18° E 03:20:42 10° SE visible
17 Apr ? 04:49:32 10° N 04:53:30 49° WNW 04:57:26 10° SW visible
18 Apr ? 03:19:50 10° NE 03:22:52 20° E 03:25:53 10° SE visible
18 Apr ? 04:54:30 10° N 04:58:25 43° WNW 05:02:16 10° SW visible
19 Apr ? 03:24:36 10° NE 03:27:50 22° E 03:31:01 10° SE visible
19 Apr ? 04:59:28 10° N 05:03:17 39° WNW 05:07:05 10° SW visible
20 Apr ? 03:29:22 10° NE 03:32:46 24° E 03:36:07 10° SSE visible
21 Apr ? 03:34:09 10° NE 03:37:40 27° E 03:41:10 10° SSE visible
22 Apr ? 03:38:56 10° NNE 03:42:35 30° E 03:46:11 10° SSE visible
23 Apr ? 03:43:42 10° NNE 03:47:28 34° E 03:51:10 10° SSE visible
24 Apr ? 03:48:29 10° NNE 03:52:19 38° E 03:56:07 10° SSE visible
25 Apr ? 03:53:15 10° NNE 03:57:10 42° E 04:01:02 10° S visible
